Flag for Montenegro Weather past 2 weeks in Nikšić, Montenegro

Now
51 °F

Overcast.


Feels Like: 51 °F
Forecast: 45 / 54 °F
Wind: 2 mph from Northeast

Location: Niksic

Current Time: Apr 27, 2015 at 9:18:38 PM

Latest Report: Apr 27, 2015 at 8:00 PM


Visibility: 13 mi

Pressure: 29.88 "Hg

Humidity: 100%

Dew point: 51 °F

Location of NikšićLocation

Historic Weather in Nikšić — Graph

°F

Nikšić temperature yesterday

Maximum temperature yesterday: 63 °F (at 4:00 PM)
Minimum temperature yesterday: 43 °F (at 5:00 AM)
Average temperature yesterday: 56 °F

Past Weeks' High & Low Weather Summary

 TemperatureHumidityPressure
High70 °F (Apr 13, 5:00 PM)100% (Apr 14, 6:00 AM)30.37 "Hg (Apr 14, 6:00 AM)
Low38 °F (Apr 20, 6:00 AM)21% (Apr 20, 5:00 PM)29.88 "Hg (Apr 27, 7:00 PM)
Average54 °F63%30.10 "Hg
* Reported Apr 12 8:00 PM — Apr 27 8:00 PM, Nikšić, Weather by CustomWeather, © 2015

Note: Actual official high and low records may vary slightly from our data, if they occured in-between our weather recording intervals... More about our weather records

Advertising

Nikšić weather history for previous 24 hours

 ConditionsComfort  
Time TempWeatherWind HumidityBarometerVisibility
8:00 PM
Mon, Apr 27
51 °FOvercast.2 mph100%29.88 "Hg12 mi
7:00 PM52 °FOvercast.2 mph99%29.88 "Hg12 mi
6:00 PM53 °FOvercast.1 mph100%29.91 "Hg12 mi
5:00 PM53 °FOvercast.1 mph100%29.93 "Hg12 mi
4:00 PM52 °FLight rain. Overcast.2 mph100%29.95 "Hg12 mi
3:00 PM55 °FLight rain. Overcast.6 mph99%29.95 "Hg12 mi
2:00 PM58 °FOvercast.7 mph63%29.92 "Hg12 mi
1:00 PM58 °FOvercast.7 mph59%29.93 "Hg12 mi
12:00 PM58 °FOvercast.6 mph57%29.95 "Hg12 mi
11:00 AM58 °FOvercast.6 mph61%29.95 "Hg12 mi
10:00 AM56 °FOvercast.2 mph86%29.95 "Hg12 mi
9:00 AM52 °FOvercast.1 mph99%29.98 "Hg12 mi
8:00 AM47 °FOvercast.1 mph100%30.01 "Hg12 mi
7:00 AM45 °FPartly sunny.1 mph100%30.02 "Hg12 mi
6:00 AM42 °FScattered clouds.2 mph100%30.03 "Hg12 mi
5:00 AM42 °FPassing clouds.2 mph100%30.03 "Hg12 mi
2:00 AM45 °FClear.1 mph99%30.03 "Hg12 mi
11:00 PM
Sun, Apr 26
50 °FClear.2 mph91%30.01 "Hg12 mi
10:00 PM54 °FPassing clouds.2 mph79%29.98 "Hg12 mi
9:00 PM56 °FPassing clouds.3 mph72%29.97 "Hg12 mi
Weather by CustomWeather, © 2015

See weather overviewHow to use our weather pages